Regional Weather Roundup
Issued by NWS

Home | Current Version | Previous Version | Text Only | Print | Product List | Glossary Off
Versions: 1 2 3 4 5 6 7 8 9 10 11 12 13 14 15 16 17 18 19 20 21 22 23 24 25 26 27 28 29 30 31 32 33 34 35 36 37 38 39 40 41 42 43 44 45 46 47 48 49 50

000
ASUS45 KCYS 240210
RWRWY

WYOMING REGIONAL WEATHER ROUNDUP
NATIONAL WEATHER SERVICE CHEYENNE WY
800 PM MDT WED MAY 23 2018

NOTE:  "FAIR" INDICATES FEW OR NO CLOUDS BELOW 12,000 FEET
WITH NO SIGNIFICANT WEATHER AND/OR OBSTRUCTIONS TO VISIBILITY.

WYZ001-240300-
YELLOWSTONE NATIONAL PARK

CITY           SKY/WX    TMP DP  RH WIND       PRES   REMARKS
LK YELLOWSTONE   N/A     38  37  97 CALM      30.12R
W YELLOWSTONE  NOT AVBL

$$
WYZ002>013-054>058-071-098>099-240300-
NORTHERN WYOMING

CITY           SKY/WX    TMP DP  RH WIND       PRES   REMARKS
JACKSON        RAIN      49  46  90 CALM      30.09R FOG
CODY           CLOUDY    58  40  51 W9        29.94S
GREYBULL       CLOUDY    63  52  67 W3        29.88R
WORLAND        FAIR      61  53  75 N7        29.88S
SHERIDAN       FAIR      66  57  72 NW15      29.83R
BUFFALO        FAIR      60  41  49 VRB3      29.90R
GILLETTE       FAIR      60  49  66 S14       29.88F
NEWCASTLE      FAIR      59  46  63 N16G22    29.98R

$$
WYZ014>020-022>026-101>103-240300-
CENTRAL WYOMING

CITY           SKY/WX    TMP DP  RH WIND       PRES   REMARKS
BIG PINEY      MOCLDY    56  41  57 NW12      30.09R
PINEDALE       FAIR      50  43  76 W8        30.11R
DUBOIS         FAIR      45  39  81 N10       30.06S
LANDER         MOCLDY    58  43  57 SW13      29.95R
RIVERTON       FAIR      61  44  53 SW8       29.97R
CASPER         FAIR      62  45  53 W10       29.96R
DOUGLAS        FAIR      61  50  67 E8        29.98R

$$
WYZ021-027>030-104>119-240300-
SOUTHERN WYOMING

CITY           SKY/WX    TMP DP  RH WIND       PRES   REMARKS
EVANSTON       MOCLDY    56  40  55 SW16      30.11R
KEMMERER       MOCLDY    55  37  50 SW12      30.12R
FORT BRIDGER   LGT RAIN  56  41  55 SW24      30.15R
ROCK SPRINGS   MOCLDY    56  33  42 SW10      30.09F
DIXON          FAIR      61  35  37 W7        30.10R
RAWLINS        FAIR      60  34  37 W15       30.08R
SARATOGA       FAIR      59  34  38 W7        30.10R
LARAMIE        MOCLDY    59  41  51 NE7       30.09R
CHEYENNE       FAIR      64  50  60 W8        30.02R
TORRINGTON     FAIR      61  55  81 NE10      29.91R
PINE BLUFFS    FAIR      64  45  48 N13G18    29.97R

$$



USA.gov is the U.S. government's official web portal to all federal, state and local government web resources and services.